Regional Weather Roundup
Issued by NWS State College, PA

Home | Current Version | Previous Version | Text Only | Print | Product List | Glossary On
Versions: 1 2 3 4 5 6 7 8 9 10 11 12 13 14 15 16 17 18 19 20 21 22 23 24 25 26 27 28 29 30 31 32 33 34 35 36 37 38 39 40 41 42 43 44 45 46 47 48 49 50
000
ASUS41 KCTP 030810
RWRCTP

REGIONAL WEATHER ROUNDUP
NATIONAL WEATHER SERVICE STATE COLLEGE PA
400 AM EDT MON AUG 03 2015

Note: "fair" indicates few or no clouds below 12,000 feet with no
significant weather and/or obstructions to visibility.

* = STATION THAT DOES NOT REPORT PRECIPITATION /E.G. RAIN...SNOW...ETC/
    THUNDER OR FOG.

PAZ002>004-007>009-013>016-020>023-029>032-030900-
WESTERN PENNSYLVANIA

CITY           SKY/WX    TMP DP  RH WIND       PRES   REMARKS
ERIE           CLOUDY    66  59  78 S9        29.79F
MEADVILLE      MOCLDY    65  57  75 W6        29.86S
FRANKLIN*      MOCLDY    66  57  72 W7        29.87R
NEW CASTLE     PTSUNNY   71  59  66 NW12G20   29.88R
BEAVER COUNTY  NOT AVBL
BUTLER*        PTCLDY    68  59  73 SW5       29.87R
PITTSBURGH INT PTCLDY    70  59  68 SW6       29.84R
PITTSBURGH     CLEAR     67  56  67 S9        29.84S
INDIANA*       CLEAR     68  61  77 SW7       29.87F
LATROBE        NOT AVBL
WASHINGTON CO* NOT AVBL
$$

PAZ004>006-010>012-017>019-024>028-033>037-041-042-045-046-049>053-030900-
CENTRAL PENNSYLVANIA

CITY           SKY/WX    TMP DP  RH WIND       PRES   REMARKS
BRADFORD       PTCLDY    68  58  70 SW8       29.83S
DUBOIS         CLEAR     68  58  70 W10       29.85R
CLEARFIELD     CLEAR     64  59  83 SW3       29.83F
JOHNSTOWN      CLEAR     67  56  67 S12       29.89F
ALTOONA        CLEAR     67  58  72 S7        29.87F
STATE COLLEGE  CLEAR     66  60  80 SW7       29.84S
WILLIAMSPORT   PTCLDY    64  61  90 N3        29.79F
SELINSGROVE    PTCLDY    61  60  97 CALM      29.83S
FT INDIANTOWN  CLEAR     62  60  93 CALM      29.86R
CAPITAL CITY   CLEAR     68  60  75 W7        29.85S
HARRISBURG     PTCLDY    73  62  68 SW14      29.85R
YORK           CLEAR     71  60  68 CALM      29.86S
$$

PAZ038>040-043-044-047-048-054-055-060>062-067>071-030900-
EASTERN PENNSYLVANIA

CITY           SKY/WX    TMP DP  RH WIND       PRES   REMARKS
SCRANTON       PTCLDY    67  58  72 CALM      29.82F
MOUNT POCONO   CLEAR     67  57  70 SW7       29.89S
ALLENTOWN      CLEAR     63  60  90 CALM      29.85S
QUAKERTOWN*    SUNNY     63  59  88 CALM      29.88R
READING        CLEAR     69  60  73 CALM      29.84F
LANCASTER      CLEAR     63  61  93 CALM      29.86S
COATESVILLE    SUNNY     68  61  77 W3        29.88S
POTTSTOWN      CLEAR     64  61  90 CALM      29.87S
BLUE BELL      CLEAR     72  64  78 CALM      29.86R
DOYLESTOWN     CLEAR     67  61  81 CALM      29.86S
WILLOW GROVE   NOT AVBL
NORTH PHILA    CLEAR     75  61  61 S3        29.87S
PHILADELPHIA   CLEAR     73  64  73 S8        29.87S
$$


USA.gov is the U.S. government's official web portal to all federal, state and local government web resources and services.